Home   Weather   Bridgewater   Past weeks

Flag for USA Past Weather in Bridgewater, Massachusetts, USA — Yesterday and Last 2 Weeks

75 °F

Mostly cloudy.

Feels Like: 76 °F
Forecast: 61 / 72 °F
Wind: 9 mph from Southeast

Location: Taunton Municipal Airport

Current Time: Oct 21, 2016 at 2:35:57 PM

Latest Report: Oct 21, 2016 at 1:52 PM

Visibility: 10 mi

Pressure: 29.71 "Hg

Humidity: 74%

Dew Point: 66 °F

Location of BridgewaterLocation

Past Weather in Bridgewater — Graph


Bridgewater Temperature Yesterday

Maximum temperature yesterday: 69 °F (at 1:52 PM)
Minimum temperature yesterday: 42 °F (at 6:52 AM)
Average temperature yesterday: 56 °F

High & Low Weather Summary for the Past Weeks

High82 °F (Oct 19, 2:52 PM)97% (Oct 7, 5:52 AM)30.47 "Hg (Oct 7, 5:52 AM)
Low29 °F (Oct 15, 6:52 AM)30% (Oct 12, 2:52 PM)29.74 "Hg (Oct 21, 12:52 PM)
Average56 °F78%30.14 "Hg
* Reported Oct 6 12:52 PM — Oct 21 12:52 PM, Bridgewater, Weather by CustomWeather, © 2016

Note: Actual official high and low records may vary slightly from our data, if they occured in-between our weather recording intervals... More about our weather records


Bridgewater Weather History for the Previous 24 Hours

Scroll right to see more
Time TempWeatherWind HumidityBarometerVisibility
12:52 PM
Fri, Oct 21
76 °FMostly cloudy.12 mph69%29.74 "Hg10 mi
11:52 AM74 °FPartly sunny.16 mph76%29.79 "Hg10 mi
10:52 AM74 °FOvercast.12 mph76%29.82 "Hg10 mi
9:52 AM72 °FPassing clouds.9 mph81%29.84 "Hg10 mi
8:52 AM69 °FLow clouds.6 mph90%29.87 "Hg10 mi
7:52 AM65 °FLow clouds.5 mph97%29.88 "Hg9 mi
7:01 AM66 °FLow clouds.7 mph93%29.89 "Hg10 mi
5:52 AM66 °FLow clouds.5 mph96%29.91 "Hg10 mi
5:00 AM66 °FFog.3 mph96%29.92 "Hg4 mi
4:03 AM65 °FFog.3 mph94%29.93 "Hg1 mi
3:52 AM64 °FFog.No wind97%29.93 "Hg2 mi
2:59 AM63 °FLight rain. Fog.5 mph93%29.95 "Hg2 mi
1:52 AM62 °FFog.No wind96%29.99 "Hg2 mi
12:59 AM59 °FFog.No wind96%30.00 "Hg6 mi
11:52 PM
Thu, Oct 20
59 °FLow clouds.No wind93%30.03 "Hg7 mi
10:52 PM59 °FLight rain. Fog.No wind90%30.06 "Hg6 mi
9:52 PM60 °FOvercast.3 mph83%30.09 "Hg10 mi
8:52 PM59 °FOvercast.3 mph81%30.11 "Hg10 mi
7:52 PM59 °FMostly cloudy.6 mph81%30.13 "Hg10 mi
6:52 PM59 °FMostly cloudy.7 mph81%30.14 "Hg10 mi
5:52 PM60 °FPassing clouds.7 mph78%30.16 "Hg10 mi
4:52 PM63 °FPassing clouds.8 mph70%30.16 "Hg10 mi
3:52 PM66 °FSunny.9 mph65%30.16 "Hg10 mi
2:52 PM69 °FPassing clouds.10 mph57%30.16 "Hg10 mi
Weather by CustomWeather, © 2016

See weather overviewHow to use our weather pages